Shreveport Downtown, LA

3:10 AM CDT on May 26, 2017 (GMT -0500)
Shreveport Downtown

Weather History for KDTN - March, 2013

Change the Weather History Date:

Friday, March 29, 2013

  Actual Average (KBAD) Record (KBAD)
Temperature  
Mean Temperature 67 °F -  
Max Temperature 77 °F 69 °F 85 °F (2007)
Min Temperature 59 °F 50 °F 38 °F (2009)
Cooling Degree Days 2    
Growing Degree Days 17 (Base 50)    
Moisture  
Dew Point 54 °F    
Average Humidity 65    
Maximum Humidity 81    
Minimum Humidity 50    
Precipitation  
Precipitation 0.00 in - - ()
Sea Level Pressure  
Sea Level Pressure 30.18 in    
Wind  
Wind Speed 9 mph (SSW)    
Max Wind Speed 14 mph    
Max Gust Speed 17 mph    
Visibility 10 miles    
Events      
Averages and records for this station are not official NWS values.
T = Trace of Precipitation, MM = Missing Value Source: NWS Daily Summary

Daily Weather History Graph

Daily Weather History Graph

Search for Another Location

Airport or City:

Trip Planner

Search our weather history database for the weather conditions in past years. The results will help you decide how hot, cold, wet, or windy it might be!

Date:

Astronomy

Mar. 29, 2013 Rise Set
Actual Time 7:06 AM CDT 7:33 PM CDT
Civil Twilight 6:41 AM CDT 7:57 PM CDT
Nautical Twilight 6:13 AM CDT 8:26 PM CDT
Astronomical Twilight 5:43 AM CDT 8:56 PM CDT
Moon 10:22 PM CDT (3/29) 8:25 AM CDT (3/29)
Length of Visible Light 13h 15m
Length of Day
12h 26m
Waning Gibbous, 93% of the Moon is Illuminated
Mar 29
Waning Gibbous
Apr 2
Last Quarter
Apr 10
New
Apr 18
First Quarter
Apr 25
Full

Hourly Weather History & Observations

Time (CDT) Temp. Dew Point Humidity Pressure Visibility Wind Dir Wind Speed Gust Speed Precip Events Conditions
12:53 AM 62.1 °F 46.0 °F 56% 30.22 in 10.0 mi South 9.2 mph - N/A   Overcast
1:53 AM 61.0 °F 51.1 °F 70% 30.22 in 10.0 mi South 13.8 mph - N/A   Overcast
2:53 AM 61.0 °F 52.0 °F 72% 30.22 in 10.0 mi SSW 11.5 mph - N/A   Overcast
3:53 AM 60.1 °F 52.0 °F 75% 30.20 in 10.0 mi South 9.2 mph - N/A   Overcast
4:53 AM 59.0 °F 52.0 °F 78% 30.20 in 10.0 mi South 10.4 mph - N/A   Overcast
5:53 AM 59.0 °F 52.0 °F 78% 30.22 in 10.0 mi South 8.1 mph - N/A   Overcast
6:53 AM 59.0 °F 53.1 °F 81% 30.22 in 10.0 mi South 6.9 mph - N/A   Overcast
7:53 AM 59.0 °F 53.1 °F 81% 30.23 in 10.0 mi South 10.4 mph - N/A   Overcast
8:53 AM 60.1 °F 54.0 °F 80% 30.23 in 10.0 mi South 9.2 mph - N/A   Mostly Cloudy
9:53 AM 64.0 °F 55.0 °F 73% 30.24 in 10.0 mi South 10.4 mph - N/A   Clear
10:53 AM 68.0 °F 57.0 °F 68% 30.22 in 10.0 mi South 12.7 mph 17.3 mph N/A   Scattered Clouds
11:53 AM 71.1 °F 55.9 °F 59% 30.20 in 10.0 mi Variable 5.8 mph - N/A   Clear
12:53 PM 73.0 °F 55.9 °F 55% 30.18 in 10.0 mi SSW 6.9 mph - N/A   Clear
1:53 PM 73.9 °F 55.0 °F 52% 30.15 in 10.0 mi SSW 5.8 mph - N/A   Scattered Clouds
2:53 PM 75.0 °F 55.0 °F 50% 30.14 in 10.0 mi SW 5.8 mph - N/A   Overcast
3:53 PM 73.9 °F 54.0 °F 50% 30.13 in 10.0 mi WSW 5.8 mph - N/A   Overcast
4:53 PM 73.9 °F 54.0 °F 50% 30.13 in 10.0 mi WSW 6.9 mph - N/A   Overcast
5:53 PM 73.0 °F 54.0 °F 51% 30.12 in 10.0 mi South 6.9 mph - N/A   Overcast
6:53 PM 73.0 °F 55.0 °F 53% 30.12 in 10.0 mi SW 9.2 mph - N/A   Overcast
7:53 PM 70.0 °F 55.0 °F 59% 30.12 in 8.0 mi Calm Calm - N/A   Partly Cloudy
8:53 PM 66.0 °F 55.0 °F 68% 30.12 in 10.0 mi Calm Calm - N/A   Clear
9:53 PM 66.9 °F 55.0 °F 66% 30.12 in 10.0 mi South 8.1 mph - N/A   Clear
10:53 PM 64.0 °F 55.0 °F 73% 30.14 in 8.0 mi SSW 3.5 mph - N/A   Scattered Clouds
11:53 PM 64.9 °F 55.9 °F 73% 30.13 in 7.0 mi SSW 8.1 mph - N/A   Clear